Retour au catalogue

BREEZE-KM R/B

ActifPO
NORAD 41580·ROCKET BODY·🇷🇺 Russia

Lancé Jun 4, 2016 depuis Plesetsk Cosmodrome

Loading…

Prochains Passages (prochaines 24 heures)

TLE

FraisSource: Space-Track

Époque: Sep 14, 2026, 08:48 UTC

1 41580U 16034B   26257.36711762  .00000022  00000-0  26116-4 0  9991
2 41580  99.1660 127.7795 0209099 292.5474  65.3696 14.25931444534690

Suivez BREEZE-KM R/B en temps réel avec AllMySat

Download on the App Store